Location: Cornate
(45.6500°N, 9.4667°E)
Time: 01:41:09
(UTC+00:00)

Daily predictions for brighter satellites

Satellite Brightness Start Highest point End
(mag) Time Altitude Azimuth Time Altitude Azimuth Time Altitude Azimuth
CENTAUR R/B 4.2 02:14:21 39° E 02:14:21 39° E 02:20:14 10° ESE
Lacrosse 5 4.4 02:52:48 18° E 02:52:48 18° E 02:54:42 10° ENE
Cosmos 2263 Rocket 3.9 03:01:26 29° NE 03:01:26 29° NE 03:04:22 10° NE
SJ 16-02 4.1 03:08:47 16° ENE 03:08:47 16° ENE 03:10:13 10° NE
CZ-4C R/B 4.0 03:25:49 19° SSE 03:27:56 25° ESE 03:32:22 10° ENE
BREEZE-M DEB (TANK) 4.4 03:30:34 71° NNW 03:31:02 73° N 03:35:19 10° E
ATLAS 3B R/B 3.6 03:30:34 35° N 03:32:36 43° NE 03:39:20 10° ESE
Cosmos 1943 3.9 03:36:00 47° SE 03:36:00 47° SE 03:39:59 10° SSE
Lacrosse 4 Rocket 3.4 03:38:11 27° ESE 03:38:11 27° ESE 03:40:21 10° SE
Cosmos 923 Rocket 4.4 03:53:38 53° NNE 03:54:32 62° ENE 03:59:48 10° SSE
ALOS 3.1 03:49:54 10° NNE 03:53:16 45° NE 03:53:16 45° NE
NOSS 3-2 (C) 4.1 04:00:08 54° WSW 04:00:49 56° WSW 04:09:08 10° SSE
NOSS 3-4 (A) 3.2 04:00:50 72° SW 04:01:30 85° NW 04:07:51 10° NE
NOSS 3-4 (C) 3.2 04:00:54 71° SW 04:01:37 86° NW 04:07:59 10° NE
CENTAUR R/B 3.2 04:01:35 52° W 04:02:49 56° WSW 04:11:24 10° SSE
Milstar 3 Cent rocket 4.5 04:00:16 18° SSW 04:03:57 25° SSE 04:13:16 10° ESE
ARGOS Delta rocket 4.1 04:00:30 10° N 04:04:43 60° N 04:04:43 60° N
Cosmos 158 Rocket 3.8 04:10:38 67° N 04:11:17 82° ENE 04:16:17 10° SSE
SL-4 R/B 3.4 04:15:03 29° NNE 04:15:03 29° NNE 04:17:24 10° ENE
Cosmos 1151 Rocket 3.4 04:17:01 51° S 04:17:01 51° S 04:20:14 10° S
SKYMED 2 4.1 04:12:52 10° SSE 04:17:06 58° ENE 04:19:24 26° N
Cosmos 1782 3.2 04:16:34 48° NNE 04:17:24 61° E 04:21:23 10° SSE
Cosmos 1844 Rocket 3.9 04:12:10 10° S 04:17:24 41° ESE 04:22:42 10° NE
ATLAS 2AS CENTAUR R/B 2.9 04:15:30 22° SW 04:21:07 84° NW 04:29:02 10° NE
ERS-2 3.9 04:17:52 10° S 04:19:17 22° S 04:19:17 22° S
Cosmos 1680 Rocket 3.5 04:20:02 33° NNW 04:22:33 80° ENE 04:27:51 10° SSE
SJ-12 4.3 04:19:33 10° NNE 04:23:35 61° E 04:27:35 10° S
FALCON 9 DEB 4.3 04:24:40 38° ENE 04:24:40 38° ENE 04:26:48 10° ENE
ATLAS 5 CENTAUR R/B 3.8 04:31:19 17° N 04:31:19 17° N 04:32:07 10° NNE
Atlas Centaur 2 4.2 04:26:41 13° SW 04:29:53 18° S 04:33:38 10° SE
RESURS DK-1 2.9 04:27:29 10° SSW 04:31:34 59° ESE 04:35:40 10° NE
CRYOSAT 2 4.2 04:27:20 10° S 04:32:11 86° W 04:37:05 10° N
ATLAS CENTAUR R/B 1.9 04:32:06 40° N 04:33:00 50° NE 04:36:48 10° SE
Lacrosse 5 1.7 04:32:02 51° WSW 04:33:17 74° NW 04:38:23 10° NE
ADEOS 3.5 04:29:11 10° N 04:34:22 63° WNW 04:39:30 10° SSW
Cosmos 1328 Rocket 3.5 04:35:39 58° WNW 04:35:57 60° W 04:40:18 10° S
Meteor PRIRODA 4.3 04:32:50 10° NNE 04:36:32 56° E 04:40:12 10° S
H-2A R/B 4.2 04:36:43 10° NNE 04:40:24 39° E 04:44:03 10° SSE
Cosmos 2112 Rocket 3.9 04:38:53 23° NNW 04:42:19 82° WSW 04:47:39 10° SSE
Cosmos 2263 Rocket 2.9 04:43:11 33° NW 04:43:11 33° NW 04:48:11 10° N
Gbstr 26 Del rocket 2.5 04:43:34 64° W 04:44:04 79° SSW 04:47:58 10° SE
Meteor 1-4 Rocket 4.4 04:46:47 18° SSW 04:46:47 18° SSW 04:47:49 10° SSW
SJ 16-02 1.9 04:45:52 38° NW 04:45:52 38° NW 04:49:24 10° N
Cosmos 1898 Rocket 3.4 04:47:19 10° SSW 04:52:38 83° WNW 04:58:01 10° NNE
Meteor 1-26 Rocket 4.4 04:48:59 15° NNW 04:53:33 47° W 04:58:52 10° SSW
FALCON 9 DEB 2.9 04:56:35 59° WNW 04:56:51 63° NNW 05:00:04 10° NE
FALCON 9 DEB 2.9 04:56:45 57° NW 04:56:59 59° NNW 05:00:11 10° NE
FENGYUN 3A 4.2 04:54:12 10° N 04:59:06 36° WNW 05:03:58 10° SW
Envisat 4.1 04:54:44 10° NNE 04:59:39 47° E 05:04:31 10° S
Cosmos 1743 Rocket 3.6 04:55:33 10° S 05:00:00 87° E 05:04:30 10° N
Cosmos 1408 Rocket 3.8 04:57:45 10° SSW 05:02:03 47° WNW 05:06:22 10° N
H-2A R/B 4.0 04:59:28 10° NNE 05:03:03 35° E 05:06:34 10° SSE
Cosmos 2082 Rocket 4.5 05:00:28 10° N 05:04:14 18° NE 05:08:01 10° E
Cosmos 2181 Rocket 4.3 04:58:53 10° NNW 05:04:37 40° W 05:10:15 10° SSW
NOSS 7 (H) 4.1 05:01:45 13° SW 05:04:41 89° W 05:07:39 10° NE
COSMO-SKYMED 1 2.9 05:01:03 10° S 05:05:12 44° W 05:07:59 19° NW
USA 307 4.2 05:05:08 21° NNW 05:07:01 29° N 05:10:48 10° ENE
Cosmos 1937 Rocket 3.4 05:04:34 10° SSW 05:09:44 81° WNW 05:14:57 10° NNE
USA 308 4.2 05:11:14 19° NW 05:13:25 29° N 05:17:13 10° ENE
Meteor 2-3 Rocket 4.3 05:09:09 10° SW 05:14:17 33° WNW 05:19:30 10° N
Lacrosse 4 Rocket 3.1 05:14:32 18° WSW 05:14:32 18° WSW 05:17:18 10° SSW
Cosmos 1833 Rocket 4.3 05:10:02 10° N 05:15:00 31° NE 05:19:55 10° ESE
MOS 1 Rocket 3.4 05:10:43 10° SSE 05:15:31 87° WSW 05:20:41 10° NNW
Cosmos 2154 Rocket 4.0 05:09:34 10° S 05:15:48 88° E 05:22:07 10° N
CZ-4C R/B 2.2 05:11:05 11° WSW 05:15:51 56° NW 05:21:48 10° NNE
CZ-4B R/B 3.3 05:13:33 10° N 05:17:52 46° WNW 05:22:04 10° SW
Cosmos 1689 Rocket 2.9 05:15:44 10° SSW 05:18:12 28° W 05:18:12 28° W
Cosmos 1805 Rocket 3.9 05:14:47 10° S 05:19:11 70° E 05:23:38 10° NNE
Meteor 1-27 Rocket 4.2 05:13:26 10° N 05:19:11 66° ENE 05:25:01 10° SSE
FALCON 9 DEB 3.4 05:18:33 29° WNW 05:19:46 44° NNW 05:22:53 10° NE
Meteor 1-10 Rocket 4.1 05:15:38 10° NNW 05:21:12 76° W 05:26:48 10° S
ATLAS 3B R/B 3.0 05:17:52 15° NW 05:23:29 53° WSW 05:30:28 10° SSE
Aureole 2 Rocket 1.4 05:21:08 10° SSW 05:23:40 84° WNW 05:26:13 10° NNE
COSMOS 2406 4.3 05:19:45 10° NNW 05:25:14 43° NE 05:30:42 10° SE
Cosmos 1862 3.4 05:22:49 10° SSW 05:26:47 54° WNW 05:30:47 10° N
Genesis I 3.5 05:24:54 10° WSW 05:28:31 42° NW 05:32:12 10° NNE
YAOGAN 6 2.5 05:25:09 10° NNE 05:28:40 87° ESE 05:32:09 10° SSW
ALOS 3.7 05:28:37 10° NNW 05:31:28 16° WNW 05:31:45 16° WNW
Cosmos 2278 Rocket 4.2 05:27:57 10° SSE 05:32:54 33° ESE 05:37:54 10° NE
Cosmos 2327 Rocket 4.4 05:29:14 10° SSW 05:35:16 65° W 05:41:20 10° N
Cosmos 2074 Rocket 4.3 05:30:56 10° SW 05:36:47 43° WNW 05:42:41 10° N
PSLV R/B 3.7 05:33:40 10° N 05:37:28 57° WNW 05:41:11 10° SSW
USA 305 4.0 05:38:55 12° NW 05:42:26 35° NNE 05:46:24 10° E
BREEZE M DEB (TANK) 2.8 05:35:08 10° WSW 05:42:28 69° SSE 05:45:07 10° ENE
Cosmos 405 Rocket 3.1 05:39:14 10° SW 05:42:41 37° WNW 05:46:13 10° N
SL-24 DEB 4.3 05:37:59 10° S 05:42:44 69° W 05:47:32 10° N
EO 1 Delta rocket 4.5 05:41:53 10° SSW 05:46:33 36° W 05:50:51 10° NNW
NOAA 12 4.5 05:41:17 10° NNE 05:46:34 70° ESE 05:51:47 10° S
Cosmos 1812 3.5 05:44:04 10° NNW 05:47:30 31° W 05:50:55 10° SSW
Cosmos 1295 Rocket 4.4 05:42:11 10° SSW 05:48:13 65° W 05:54:17 10° N
Cosmos 2228 Rocket 3.7 05:46:00 10° NNW 05:50:02 35° W 05:54:01 10° SSW
USA 306 3.9 05:47:01 11° NW 05:50:55 37° NNE 05:54:56 10° E
Cosmos 1633 Rocket 3.7 05:48:24 10° S 05:52:45 62° E 05:57:08 10° NNE
SL-4 R/B 2.7 05:50:37 11° WNW 05:54:03 36° N 05:57:26 10° E
USA 234 3.4 05:51:23 10° NE 05:57:57 82° SE 06:04:31 10° SW
Cosmos 1356 3.3 05:54:53 10° SSW 05:58:17 79° W 06:01:44 10° N
FALCON 9 DEB 4.1 05:56:59 10° WNW 05:59:48 27° NNW 06:02:38 10° NE
Cosmos 1844 Rocket 3.3 05:56:15 10° WSW 06:01:22 35° NW 06:06:34 10° NNE
FALCON 9 DEB 4.2 06:00:08 10° NW 06:03:24 36° NNE 06:06:38 10° E
Cosmos 1707 Rocket 3.6 06:02:53 10° NNW 06:07:10 60° W 06:11:25 10° S
EXPRESS MD2 4.3 06:03:52 10° WNW 06:08:00 87° SSW 06:16:47 10° ESE
MOS 1-B 4.4 06:02:59 10° N 06:08:41 58° WNW 06:14:21 10° SW
COSMOS 2455 2.9 06:03:30 10° SW 06:09:28 63° NW 06:15:29 10° NNE
RESURS DK-1 3.9 06:07:06 10° W 06:09:58 18° NW 06:12:50 10° N
BREEZE-M (TANK) 3.4 06:04:38 10° SW 06:11:08 52° SSE 06:13:35 10° ENE
NOAA 6 4.3 06:06:56 10° N 06:11:48 45° WNW 06:16:38 10° SW
BREEZE-M DEB 4.3 06:04:31 10° WNW 06:12:02 34° SW 06:14:51 10° SSE
ATLAS 2AS CENTAUR R/B 3.8 06:06:20 10° W 06:13:14 31° NNW 06:19:58 10° NNE
